Time,TemperatureF,DewpointF,PressureIn,WindDirection,WindDirectionDegrees,WindSpeedMPH,WindSpeedGustMPH,Humidity,HourlyPrecipIn,Conditions,Clouds,dailyrainin,SoftwareType,DateUTC
2013-02-25 00:00:00,46.3,41.7,29.98,SW,227,0.0,0.0,84,0.00,,---,0.00,VWS V14.01,2013-02-25 05:00:00,
2013-02-25 00:05:00,46.2,41.6,29.98,SW,227,0.0,0.0,84,0.00,,---,0.00,VWS V14.01,2013-02-25 05:05:00,
2013-02-25 00:10:00,46.1,41.5,29.98,SW,227,0.0,0.0,84,0.00,,---,0.00,VWS V14.01,2013-02-25 05:10:00,
2013-02-25 00:15:00,46.1,41.5,29.98,SW,227,0.0,0.0,84,0.00,,---,0.00,VWS V14.01,2013-02-25 05:15:00,
2013-02-25 00:20:00,46.0,41.4,29.98,SW,227,0.0,0.0,84,0.00,,---,0.00,VWS V14.01,2013-02-25 05:20:00,
2013-02-25 00:25:00,46.3,41.7,29.98,SW,227,0.0,0.0,84,0.00,,---,0.00,VWS V14.01,2013-02-25 05:25:00,
2013-02-25 00:30:00,46.3,41.7,29.99,SW,227,0.0,0.0,84,0.00,,---,0.00,VWS V14.01,2013-02-25 05:30:00,
2013-02-25 00:35:00,46.3,41.7,29.98,SW,227,0.0,0.0,84,0.00,,---,0.00,VWS V14.01,2013-02-25 05:35:00,
2013-02-25 00:40:00,46.2,41.6,29.98,SW,227,0.0,0.0,84,0.00,,---,0.00,VWS V14.01,2013-02-25 05:40:00,
2013-02-25 00:45:00,46.2,41.6,29.98,SW,227,0.0,0.0,84,0.00,,---,0.00,VWS V14.01,2013-02-25 05:45:00,
2013-02-25 00:50:00,46.2,41.6,29.98,SW,227,0.0,0.0,84,0.00,,---,0.00,VWS V14.01,2013-02-25 05:50:00,
2013-02-25 00:55:00,46.1,41.5,29.98,SW,227,0.0,0.0,84,0.00,,---,0.00,VWS V14.01,2013-02-25 05:55:00,
2013-02-25 01:00:00,46.0,41.4,29.98,SW,227,0.0,0.0,84,0.00,,---,0.00,VWS V14.01,2013-02-25 06:00:00,
2013-02-25 01:05:00,45.9,41.3,29.98,SW,227,0.0,0.0,84,0.00,,---,0.00,VWS V14.01,2013-02-25 06:05:00,
2013-02-25 01:10:00,45.9,41.3,29.97,SW,227,0.0,0.0,84,0.00,,---,0.00,VWS V14.01,2013-02-25 06:10:00,
2013-02-25 01:15:00,45.8,41.2,29.97,SW,227,0.0,0.0,84,0.00,,---,0.00,VWS V14.01,2013-02-25 06:15:00,
2013-02-25 01:20:00,45.7,41.2,29.98,SW,227,0.0,0.0,84,0.00,,---,0.00,VWS V14.01,2013-02-25 06:20:00,
2013-02-25 01:25:00,45.6,41.0,29.98,SW,227,0.0,0.0,84,0.00,,---,0.00,VWS V14.01,2013-02-25 06:25:00,
2013-02-25 01:30:00,45.4,40.9,29.97,SW,227,0.0,0.0,84,0.00,,---,0.00,VWS V14.01,2013-02-25 06:30:00,
2013-02-25 01:35:00,45.2,40.7,29.97,SW,227,0.0,0.0,84,0.00,,---,0.00,VWS V14.01,2013-02-25 06:35:00,
2013-02-25 01:40:00,45.1,40.6,29.97,SW,227,0.0,0.0,84,0.00,,---,0.00,VWS V14.01,2013-02-25 06:40:00,
2013-02-25 01:45:00,45.0,40.5,29.97,SW,227,0.0,0.0,84,0.00,,---,0.00,VWS V14.01,2013-02-25 06:45:00,
2013-02-25 01:50:00,44.9,40.4,29.96,SW,227,0.0,0.0,84,0.00,,---,0.00,VWS V14.01,2013-02-25 06:50:00,
2013-02-25 01:55:00,44.9,40.7,29.96,SW,227,0.0,0.0,85,0.00,,---,0.00,VWS V14.01,2013-02-25 06:55:00,
2013-02-25 02:00:00,44.9,40.7,29.96,SW,227,0.0,0.0,85,0.00,,---,0.00,VWS V14.01,2013-02-25 07:00:00,
2013-02-25 02:05:00,44.9,40.7,29.96,SW,227,0.0,0.0,85,0.00,,---,0.00,VWS V14.01,2013-02-25 07:05:00,
2013-02-25 02:10:00,44.9,40.7,29.97,SW,227,0.0,0.0,85,0.00,,---,0.00,VWS V14.01,2013-02-25 07:10:00,
2013-02-25 02:15:00,45.0,40.8,29.97,SW,227,0.0,0.0,85,0.00,,---,0.00,VWS V14.01,2013-02-25 07:15:00,
2013-02-25 02:20:00,45.0,40.8,29.97,SW,227,0.0,0.0,85,0.00,,---,0.00,VWS V14.01,2013-02-25 07:20:00,
2013-02-25 02:25:00,44.9,40.7,29.96,SW,227,0.0,0.0,85,0.00,,---,0.00,VWS V14.01,2013-02-25 07:25:00,
2013-02-25 02:30:00,45.1,40.9,29.96,SW,227,0.0,0.0,85,0.00,,---,0.00,VWS V14.01,2013-02-25 07:30:00,
2013-02-25 02:35:00,45.2,41.0,29.96,SW,227,0.0,0.0,85,0.00,,---,0.00,VWS V14.01,2013-02-25 07:35:00,
2013-02-25 02:40:00,45.3,41.1,29.96,SW,227,0.0,0.0,85,0.00,,---,0.00,VWS V14.01,2013-02-25 07:40:00,
2013-02-25 02:45:00,45.2,41.0,29.96,SW,227,0.0,0.0,85,0.00,,---,0.00,VWS V14.01,2013-02-25 07:45:00,
2013-02-25 02:50:00,45.2,41.0,29.96,SW,227,0.0,0.0,85,0.00,,---,0.00,VWS V14.01,2013-02-25 07:50:00,
2013-02-25 02:55:00,45.2,41.0,29.96,SW,227,0.0,0.0,85,0.00,,---,0.00,VWS V14.01,2013-02-25 07:55:00,
2013-02-25 03:00:00,45.2,41.0,29.95,SW,227,0.0,0.0,85,0.00,,---,0.00,VWS V14.01,2013-02-25 08:00:00,
2013-02-25 03:05:00,45.2,41.0,29.95,SW,227,0.0,0.0,85,0.00,,---,0.00,VWS V14.01,2013-02-25 08:05:00,
2013-02-25 03:10:00,45.2,41.0,29.95,SW,227,0.0,0.0,85,0.00,,---,0.00,VWS V14.01,2013-02-25 08:10:00,
2013-02-25 03:15:00,45.2,41.0,29.95,SW,227,0.0,0.0,85,0.00,,---,0.00,VWS V14.01,2013-02-25 08:15:00,
2013-02-25 03:20:00,45.2,41.0,29.95,SW,227,0.0,0.0,85,0.00,,---,0.00,VWS V14.01,2013-02-25 08:20:00,
2013-02-25 03:25:00,45.2,41.0,29.96,SW,227,0.0,0.0,85,0.00,,---,0.00,VWS V14.01,2013-02-25 08:25:00,
2013-02-25 03:30:00,45.1,40.9,29.96,SW,227,0.0,0.0,85,0.00,,---,0.00,VWS V14.01,2013-02-25 08:30:00,
2013-02-25 03:35:00,45.1,40.9,29.96,SW,227,0.0,0.0,85,0.00,,---,0.00,VWS V14.01,2013-02-25 08:35:00,
2013-02-25 03:40:00,45.2,41.0,29.96,SW,227,0.0,0.0,85,0.00,,---,0.00,VWS V14.01,2013-02-25 08:40:00,
2013-02-25 03:45:00,45.2,41.0,29.96,SW,227,0.0,0.0,85,0.00,,---,0.00,VWS V14.01,2013-02-25 08:45:00,
2013-02-25 03:50:00,45.2,41.0,29.96,SW,227,0.0,0.0,85,0.00,,---,0.00,VWS V14.01,2013-02-25 08:50:00,
2013-02-25 03:55:00,45.2,41.0,29.97,North,5,0.0,0.0,85,0.00,,---,0.00,VWS V14.01,2013-02-25 08:55:00,
2013-02-25 04:00:00,46.4,42.5,29.97,NNW,336,0.0,0.0,86,0.00,,---,0.00,VWS V14.01,2013-02-25 09:00:00,
2013-02-25 04:05:00,46.8,42.8,29.97,North,355,0.0,0.0,86,0.00,,---,0.00,VWS V14.01,2013-02-25 09:05:00,
2013-02-25 04:10:00,47.0,42.7,29.97,NNE,22,0.0,0.0,85,0.00,,---,0.00,VWS V14.01,2013-02-25 09:10:00,
2013-02-25 04:15:00,47.4,43.1,29.97,NE,38,0.0,0.0,85,0.00,,---,0.00,VWS V14.01,2013-02-25 09:15:00,
2013-02-25 04:19:00,47.7,43.4,29.96,NNE,29,0.0,0.0,85,0.00,,---,0.00,VWS V14.01,2013-02-25 09:19:00,
2013-02-25 04:24:00,48.0,43.1,29.96,NE,37,0.0,0.0,83,0.00,,---,0.00,VWS V14.01,2013-02-25 09:24:00,
2013-02-25 04:29:00,48.3,42.8,29.96,ENE,60,0.0,0.0,81,0.00,,---,0.00,VWS V14.01,2013-02-25 09:29:00,
2013-02-25 04:30:00,48.4,42.5,29.96,NE,41,0.0,0.0,80,0.00,,---,0.00,VWS V14.01,2013-02-25 09:30:00,
2013-02-25 04:34:00,48.7,42.2,29.96,NE,38,0.0,0.0,78,0.00,,---,0.00,VWS V14.01,2013-02-25 09:34:00,
2013-02-25 04:39:00,49.1,41.5,29.96,NE,55,0.0,0.0,75,0.00,,---,0.00,VWS V14.01,2013-02-25 09:39:00,
2013-02-25 04:44:00,49.2,40.9,29.96,NE,44,0.0,0.0,73,0.00,,---,0.00,VWS V14.01,2013-02-25 09:44:00,
2013-02-25 04:49:00,49.2,40.2,29.97,ENE,58,0.0,0.0,71,0.00,,---,0.00,VWS V14.01,2013-02-25 09:49:00,
2013-02-25 04:54:00,49.3,39.6,29.97,NNE,31,0.0,0.0,69,0.00,,---,0.00,VWS V14.01,2013-02-25 09:54:00,
2013-02-25 04:59:00,49.2,39.1,29.99,ENE,57,0.0,0.0,68,0.00,,---,0.00,VWS V14.01,2013-02-25 09:59:00,
2013-02-25 05:00:00,49.2,39.1,29.99,ENE,58,0.0,0.0,68,0.00,,---,0.00,VWS V14.01,2013-02-25 10:00:00,
2013-02-25 05:04:00,49.0,38.9,29.99,NE,36,0.0,0.0,68,0.00,,---,0.00,VWS V14.01,2013-02-25 10:04:00,
2013-02-25 05:09:00,49.1,38.6,29.99,NE,47,0.0,0.0,67,0.00,,---,0.00,VWS V14.01,2013-02-25 10:09:00,
2013-02-25 05:14:00,49.0,38.5,30.00,NE,50,0.0,0.0,67,0.00,,---,0.00,VWS V14.01,2013-02-25 10:14:00,
2013-02-25 05:19:00,48.8,38.0,30.00,ENE,62,0.0,0.0,66,0.00,,---,0.00,VWS V14.01,2013-02-25 10:19:00,
2013-02-25 05:24:00,48.6,37.8,30.00,NE,55,0.0,0.0,66,0.00,,---,0.00,VWS V14.01,2013-02-25 10:24:00,
2013-02-25 05:29:00,48.6,37.4,30.00,NE,43,0.0,0.0,65,0.00,,---,0.00,VWS V14.01,2013-02-25 10:29:00,
2013-02-25 05:30:00,48.7,37.5,30.00,NE,47,0.0,0.0,65,0.00,,---,0.00,VWS V14.01,2013-02-25 10:30:00,
2013-02-25 05:34:00,48.6,37.4,29.99,ENE,57,0.0,0.0,65,0.00,,---,0.00,VWS V14.01,2013-02-25 10:34:00,
2013-02-25 05:39:00,48.6,37.4,30.00,NE,56,0.0,0.0,65,0.00,,---,0.00,VWS V14.01,2013-02-25 10:39:00,
2013-02-25 05:44:00,48.7,37.1,30.00,NE,54,0.0,0.0,64,0.00,,---,0.00,VWS V14.01,2013-02-25 10:44:00,
2013-02-25 05:49:00,48.8,37.2,29.99,NE,52,0.0,0.0,64,0.00,,---,0.00,VWS V14.01,2013-02-25 10:49:00,
2013-02-25 05:54:00,49.0,37.0,29.99,ENE,68,0.0,0.0,63,0.00,,---,0.00,VWS V14.01,2013-02-25 10:54:00,
2013-02-25 05:59:00,49.0,37.0,29.99,ENE,71,0.0,0.0,63,0.00,,---,0.00,VWS V14.01,2013-02-25 10:59:00,
2013-02-25 06:00:00,49.0,37.0,29.99,ENE,67,0.0,0.0,63,0.00,,---,0.00,VWS V14.01,2013-02-25 11:00:00,
2013-02-25 06:04:00,48.7,36.7,30.00,ESE,119,2.0,4.0,63,0.00,,---,0.00,VWS V14.01,2013-02-25 11:04:00,
2013-02-25 06:09:00,48.7,36.7,30.00,ENE,66,7.0,7.0,63,0.00,,---,0.00,VWS V14.01,2013-02-25 11:09:00,
2013-02-25 06:14:00,48.7,39.7,30.00,ENE,63,5.0,7.0,71,0.00,,---,0.00,VWS V14.01,2013-02-25 11:14:00,
2013-02-25 06:19:00,48.5,40.2,30.00,ENE,72,2.0,7.0,73,0.00,,---,0.00,VWS V14.01,2013-02-25 11:19:00,
2013-02-25 06:24:00,48.5,40.6,30.00,ENE,76,2.0,7.0,74,0.00,,---,0.00,VWS V14.01,2013-02-25 11:24:00,
2013-02-25 06:29:00,48.5,40.6,30.01,ENE,60,3.0,7.0,74,0.00,,---,0.00,VWS V14.01,2013-02-25 11:29:00,
2013-02-25 06:30:00,48.4,40.5,30.01,SSE,168,1.0,7.0,74,0.00,,---,0.00,VWS V14.01,2013-02-25 11:30:00,
2013-02-25 06:34:00,48.3,40.4,30.01,ENE,71,4.0,5.0,74,0.00,,---,0.00,VWS V14.01,2013-02-25 11:34:00,
2013-02-25 06:39:00,48.0,40.1,30.01,East,84,4.0,6.0,74,0.00,,---,0.00,VWS V14.01,2013-02-25 11:39:00,
2013-02-25 06:44:00,47.9,40.4,30.02,ENE,76,2.0,6.0,75,0.00,,---,0.00,VWS V14.01,2013-02-25 11:44:00,
2013-02-25 06:49:00,47.9,40.4,30.02,ENE,76,2.0,6.0,75,0.00,,---,0.00,VWS V14.01,2013-02-25 11:49:00,
2013-02-25 06:54:00,47.9,40.4,30.02,ENE,76,2.0,6.0,75,0.00,,---,0.00,VWS V14.01,2013-02-25 11:54:00,
2013-02-25 06:59:00,47.9,40.4,30.03,ENE,76,2.0,6.0,75,0.00,,---,0.00,VWS V14.01,2013-02-25 11:59:00,
2013-02-25 07:00:00,47.9,40.4,30.03,ENE,76,2.0,6.0,75,0.00,,---,0.00,VWS V14.01,2013-02-25 12:00:00,
2013-02-25 07:04:00,47.9,40.4,30.04,ENE,76,2.0,2.0,75,0.00,,---,0.00,VWS V14.01,2013-02-25 12:04:00,
2013-02-25 07:09:00,47.9,40.4,30.04,ENE,76,2.0,2.0,75,0.00,,---,0.00,VWS V14.01,2013-02-25 12:09:00,
2013-02-25 07:14:00,47.9,40.4,30.05,ENE,76,2.0,2.0,75,0.00,,---,0.00,VWS V14.01,2013-02-25 12:14:00,
2013-02-25 07:19:00,47.9,40.4,30.05,ENE,76,2.0,2.0,75,0.00,,---,0.00,VWS V14.01,2013-02-25 12:19:00,
2013-02-25 07:24:00,47.9,40.4,30.05,ENE,76,2.0,2.0,75,0.00,,---,0.00,VWS V14.01,2013-02-25 12:24:00,
2013-02-25 07:29:00,47.9,40.4,30.06,ENE,76,2.0,2.0,75,0.00,,---,0.00,VWS V14.01,2013-02-25 12:29:00,
2013-02-25 07:30:00,47.9,40.4,30.06,ENE,76,2.0,2.0,75,0.00,,---,0.00,VWS V14.01,2013-02-25 12:30:00,
2013-02-25 07:34:00,47.9,40.4,30.06,ENE,76,2.0,2.0,75,0.00,,---,0.00,VWS V14.01,2013-02-25 12:34:00,
2013-02-25 07:39:00,47.9,40.4,30.06,ENE,76,2.0,2.0,75,0.00,,---,0.00,VWS V14.01,2013-02-25 12:39:00,
2013-02-25 07:44:00,47.9,40.4,30.07,ENE,76,2.0,2.0,75,0.00,,---,0.00,VWS V14.01,2013-02-25 12:44:00,
2013-02-25 07:49:00,47.9,40.4,30.07,ENE,76,2.0,2.0,75,0.00,,---,0.00,VWS V14.01,2013-02-25 12:49:00,
2013-02-25 07:54:00,47.9,40.4,30.07,ENE,76,2.0,2.0,75,0.00,,---,0.00,VWS V14.01,2013-02-25 12:54:00,
2013-02-25 07:59:00,45.8,38.3,30.08,East,83,0.0,2.0,75,0.00,,---,0.00,VWS V14.01,2013-02-25 12:59:00,
2013-02-25 08:00:00,45.9,38.4,30.08,ENE,61,0.0,2.0,75,0.00,,---,0.00,VWS V14.01,2013-02-25 13:00:00,
2013-02-25 08:04:00,45.6,38.2,30.08,ENE,68,0.0,0.0,75,0.00,,---,0.00,VWS V14.01,2013-02-25 13:04:00,
2013-02-25 08:09:00,45.4,38.3,30.08,ENE,65,0.0,0.0,76,0.00,,---,0.00,VWS V14.01,2013-02-25 13:09:00,
2013-02-25 08:14:00,45.1,38.3,30.08,ENE,57,0.0,0.0,77,0.00,,---,0.00,VWS V14.01,2013-02-25 13:14:00,
2013-02-25 08:19:00,45.0,38.2,30.08,ENE,69,0.0,0.0,77,0.00,,---,0.00,VWS V14.01,2013-02-25 13:19:00,
2013-02-25 08:24:00,45.0,38.6,30.08,ENE,62,0.0,0.0,78,0.00,,---,0.00,VWS V14.01,2013-02-25 13:24:00,
2013-02-25 08:29:00,45.1,39.0,30.08,NE,53,0.0,0.0,79,0.00,,---,0.00,VWS V14.01,2013-02-25 13:29:00,
2013-02-25 08:30:00,45.1,39.0,30.08,NE,53,0.0,0.0,79,0.00,,---,0.00,VWS V14.01,2013-02-25 13:30:00,
2013-02-25 08:34:00,45.1,38.7,30.08,NE,40,0.0,0.0,78,0.00,,---,0.00,VWS V14.01,2013-02-25 13:34:00,
2013-02-25 08:39:00,45.1,39.0,30.08,NE,55,0.0,0.0,79,0.00,,---,0.00,VWS V14.01,2013-02-25 13:39:00,
2013-02-25 08:44:00,45.1,39.0,30.08,NE,55,0.0,0.0,79,0.00,,---,0.00,VWS V14.01,2013-02-25 13:44:00,
2013-02-25 08:49:00,45.2,39.1,30.08,East,84,0.0,0.0,79,0.00,,---,0.00,VWS V14.01,2013-02-25 13:49:00,
2013-02-25 08:54:00,45.4,39.3,30.08,ENE,58,0.0,0.0,79,0.00,,---,0.00,VWS V14.01,2013-02-25 13:54:00,
2013-02-25 08:59:00,45.5,39.4,30.08,East,88,0.0,0.0,79,0.00,,---,0.00,VWS V14.01,2013-02-25 13:59:00,
2013-02-25 09:00:00,45.5,39.4,30.08,ENE,66,0.0,0.0,79,0.00,,---,0.00,VWS V14.01,2013-02-25 14:00:00,
2013-02-25 09:05:00,45.6,39.5,30.09,ENE,67,0.0,0.0,79,0.00,,---,0.00,VWS V14.01,2013-02-25 14:05:00,
2013-02-25 09:10:00,45.6,39.5,30.09,ENE,62,0.0,0.0,79,0.00,,---,0.00,VWS V14.01,2013-02-25 14:10:00,
2013-02-25 09:15:00,45.5,39.4,30.09,NE,53,0.0,0.0,79,0.00,,---,0.00,VWS V14.01,2013-02-25 14:15:00,
2013-02-25 09:20:00,45.4,39.0,30.10,NE,51,0.0,0.0,78,0.00,,---,0.00,VWS V14.01,2013-02-25 14:20:00,
2013-02-25 09:25:00,45.4,39.0,30.10,ENE,63,0.0,0.0,78,0.00,,---,0.00,VWS V14.01,2013-02-25 14:25:00,
2013-02-25 09:30:00,45.4,39.0,30.11,ENE,57,0.0,0.0,78,0.00,,---,0.00,VWS V14.01,2013-02-25 14:30:00,
2013-02-25 09:35:00,45.3,38.9,30.11,ENE,73,0.0,0.0,78,0.00,,---,0.00,VWS V14.01,2013-02-25 14:35:00,
2013-02-25 09:40:00,45.1,38.3,30.11,East,80,0.0,0.0,77,0.00,,---,0.00,VWS V14.01,2013-02-25 14:40:00,
2013-02-25 09:45:00,45.1,38.3,30.12,ENE,75,0.0,0.0,77,0.00,,---,0.00,VWS V14.01,2013-02-25 14:45:00,
2013-02-25 09:50:00,45.0,38.2,30.12,NE,49,0.0,0.0,77,0.00,,---,0.00,VWS V14.01,2013-02-25 14:50:00,
2013-02-25 09:55:00,45.0,37.9,30.11,NE,55,0.0,0.0,76,0.00,,---,0.00,VWS V14.01,2013-02-25 14:55:00,
2013-02-25 10:00:00,45.0,37.9,30.11,ENE,68,0.0,0.0,76,0.00,,---,0.00,VWS V14.01,2013-02-25 15:00:00,
2013-02-25 10:05:00,45.0,38.2,30.11,NE,51,0.0,0.0,77,0.00,,---,0.00,VWS V14.01,2013-02-25 15:05:00,
2013-02-25 10:10:00,44.9,37.8,30.11,ENE,60,0.0,0.0,76,0.00,,---,0.00,VWS V14.01,2013-02-25 15:10:00,
2013-02-25 10:15:00,44.9,37.8,30.11,ENE,62,0.0,0.0,76,0.00,,---,0.00,VWS V14.01,2013-02-25 15:15:00,
2013-02-25 10:20:00,44.7,37.3,30.11,ENE,61,0.0,0.0,75,0.00,,---,0.00,VWS V14.01,2013-02-25 15:20:00,
2013-02-25 10:25:00,44.6,37.2,30.11,ENE,64,0.0,0.0,75,0.00,,---,0.00,VWS V14.01,2013-02-25 15:25:00,
2013-02-25 10:30:00,44.7,37.3,30.11,ENE,62,0.0,0.0,75,0.00,,---,0.00,VWS V14.01,2013-02-25 15:30:00,
2013-02-25 10:35:00,44.7,37.3,30.11,NE,54,0.0,0.0,75,0.00,,---,0.00,VWS V14.01,2013-02-25 15:35:00,
2013-02-25 10:40:00,44.6,36.8,30.10,East,84,0.0,0.0,74,0.00,,---,0.00,VWS V14.01,2013-02-25 15:40:00,
2013-02-25 10:45:00,44.5,36.7,30.10,NE,52,0.0,0.0,74,0.00,,---,0.00,VWS V14.01,2013-02-25 15:45:00,
2013-02-25 10:50:00,44.6,36.8,30.11,ENE,61,0.0,0.0,74,0.00,,---,0.00,VWS V14.01,2013-02-25 15:50:00,
2013-02-25 10:55:00,44.9,37.1,30.10,ENE,74,0.0,0.0,74,0.00,,---,0.00,VWS V14.01,2013-02-25 15:55:00,
2013-02-25 11:00:00,44.6,36.5,30.10,ENE,64,0.0,0.0,73,0.00,,---,0.00,VWS V14.01,2013-02-25 16:00:00,
2013-02-25 11:05:00,44.5,36.0,30.11,ENE,66,0.0,0.0,72,0.00,,---,0.00,VWS V14.01,2013-02-25 16:05:00,
2013-02-25 11:10:00,44.4,36.0,30.11,NE,48,0.0,0.0,72,0.00,,---,0.00,VWS V14.01,2013-02-25 16:10:00,
2013-02-25 11:15:00,44.5,36.0,30.10,NE,56,0.0,0.0,72,0.00,,---,0.00,VWS V14.01,2013-02-25 16:15:00,
2013-02-25 11:20:00,44.5,36.0,30.10,NE,40,0.0,0.0,72,0.00,,---,0.00,VWS V14.01,2013-02-25 16:20:00,
2013-02-25 11:25:00,44.5,36.0,30.10,ENE,68,0.0,0.0,72,0.00,,---,0.00,VWS V14.01,2013-02-25 16:25:00,
2013-02-25 11:30:00,44.4,35.6,30.10,NE,47,0.0,0.0,71,0.00,,---,0.00,VWS V14.01,2013-02-25 16:30:00,
2013-02-25 11:35:00,44.5,35.7,30.10,ENE,74,0.0,0.0,71,0.00,,---,0.00,VWS V14.01,2013-02-25 16:35:00,
2013-02-25 11:40:00,44.3,35.2,30.11,ENE,61,0.0,0.0,70,0.00,,---,0.00,VWS V14.01,2013-02-25 16:40:00,
2013-02-25 11:45:00,44.3,35.2,30.10,ENE,63,0.0,0.0,70,0.00,,---,0.00,VWS V14.01,2013-02-25 16:45:00,
2013-02-25 11:50:00,44.4,35.2,30.10,ENE,65,0.0,0.0,70,0.00,,---,0.00,VWS V14.01,2013-02-25 16:50:00,
2013-02-25 11:55:00,44.4,34.9,30.10,NE,49,0.0,0.0,69,0.00,,---,0.00,VWS V14.01,2013-02-25 16:55:00,
2013-02-25 12:00:00,44.4,34.9,30.09,NE,43,0.0,0.0,69,0.00,,---,0.00,VWS V14.01,2013-02-25 17:00:00,
2013-02-25 12:05:00,44.5,35.0,30.10,NE,55,0.0,0.0,69,0.00,,---,0.00,VWS V14.01,2013-02-25 17:05:00,
2013-02-25 12:10:00,44.5,35.0,30.09,ENE,62,0.0,0.0,69,0.00,,---,0.00,VWS V14.01,2013-02-25 17:10:00,
2013-02-25 12:15:00,44.5,35.0,30.10,NE,42,0.0,0.0,69,0.00,,---,0.00,VWS V14.01,2013-02-25 17:15:00,
2013-02-25 12:20:00,44.6,35.1,30.10,ENE,72,0.0,0.0,69,0.00,,---,0.00,VWS V14.01,2013-02-25 17:20:00,
2013-02-25 12:25:00,44.7,35.2,30.10,ENE,63,0.0,0.0,69,0.00,,---,0.00,VWS V14.01,2013-02-25 17:25:00,
2013-02-25 12:30:00,44.8,34.9,30.10,NE,53,0.0,0.0,68,0.00,,---,0.00,VWS V14.01,2013-02-25 17:30:00,
2013-02-25 12:35:00,44.8,34.9,30.09,ENE,75,0.0,0.0,68,0.00,,---,0.00,VWS V14.01,2013-02-25 17:35:00,
2013-02-25 12:40:00,44.8,34.9,30.09,ENE,63,0.0,0.0,68,0.00,,---,0.00,VWS V14.01,2013-02-25 17:40:00,
2013-02-25 12:45:00,44.9,35.0,30.09,NE,44,0.0,0.0,68,0.00,,---,0.00,VWS V14.01,2013-02-25 17:45:00,
2013-02-25 12:50:00,45.0,35.1,30.10,NE,51,0.0,0.0,68,0.00,,---,0.00,VWS V14.01,2013-02-25 17:50:00,
2013-02-25 12:55:00,45.0,35.1,30.09,ENE,61,0.0,0.0,68,0.00,,---,0.00,VWS V14.01,2013-02-25 17:55:00,
2013-02-25 13:00:00,45.0,35.1,30.08,NE,51,0.0,0.0,68,0.00,,---,0.00,VWS V14.01,2013-02-25 18:00:00,
2013-02-25 13:05:00,45.1,35.2,30.08,East,86,0.0,0.0,68,0.00,,---,0.00,VWS V14.01,2013-02-25 18:05:00,
2013-02-25 13:10:00,45.0,35.1,30.07,ENE,73,0.0,0.0,68,0.00,,---,0.00,VWS V14.01,2013-02-25 18:10:00,
2013-02-25 13:15:00,45.2,35.3,30.06,NE,53,0.0,0.0,68,0.00,,---,0.00,VWS V14.01,2013-02-25 18:15:00,
2013-02-25 13:20:00,45.1,34.8,30.06,East,92,0.0,0.0,67,0.00,,---,0.00,VWS V14.01,2013-02-25 18:20:00,
2013-02-25 13:25:00,45.3,35.4,30.06,NE,55,0.0,0.0,68,0.00,,---,0.00,VWS V14.01,2013-02-25 18:25:00,
2013-02-25 13:30:00,45.4,35.1,30.06,NE,51,0.0,0.0,67,0.00,,---,0.00,VWS V14.01,2013-02-25 18:30:00,
2013-02-25 13:35:00,45.3,35.0,30.07,ENE,61,0.0,0.0,67,0.00,,---,0.00,VWS V14.01,2013-02-25 18:35:00,
2013-02-25 13:40:00,45.4,35.5,30.06,ENE,74,0.0,0.0,68,0.00,,---,0.00,VWS V14.01,2013-02-25 18:40:00,
2013-02-25 13:45:00,45.4,35.1,30.06,ENE,66,0.0,0.0,67,0.00,,---,0.00,VWS V14.01,2013-02-25 18:45:00,
2013-02-25 13:50:00,45.6,35.7,30.06,ENE,69,0.0,0.0,68,0.00,,---,0.00,VWS V14.01,2013-02-25 18:50:00,
2013-02-25 13:55:00,45.6,35.3,30.06,ENE,67,0.0,0.0,67,0.00,,---,0.00,VWS V14.01,2013-02-25 18:55:00,
2013-02-25 14:00:00,45.7,35.8,30.06,NE,47,0.0,0.0,68,0.00,,---,0.00,VWS V14.01,2013-02-25 19:00:00,
2013-02-25 14:05:00,45.6,35.3,30.05,ENE,63,0.0,0.0,67,0.00,,---,0.00,VWS V14.01,2013-02-25 19:05:00,
2013-02-25 14:10:00,45.8,35.8,30.05,ENE,63,0.0,0.0,68,0.00,,---,0.00,VWS V14.01,2013-02-25 19:10:00,
2013-02-25 14:15:00,45.7,35.4,30.05,ENE,64,0.0,0.0,67,0.00,,---,0.00,VWS V14.01,2013-02-25 19:15:00,
2013-02-25 14:20:00,45.7,35.4,30.06,NE,42,0.0,0.0,67,0.00,,---,0.00,VWS V14.01,2013-02-25 19:20:00,
2013-02-25 14:25:00,45.8,35.5,30.07,ENE,69,0.0,0.0,67,0.00,,---,0.00,VWS V14.01,2013-02-25 19:25:00,
2013-02-25 14:30:00,45.9,36.0,30.06,NE,43,0.0,0.0,68,0.00,,---,0.00,VWS V14.01,2013-02-25 19:30:00,
2013-02-25 14:35:00,46.0,36.0,30.06,ESE,103,0.0,0.0,68,0.00,,---,0.00,VWS V14.01,2013-02-25 19:35:00,
2013-02-25 14:40:00,46.0,36.0,30.07,East,80,0.0,0.0,68,0.00,,---,0.00,VWS V14.01,2013-02-25 19:40:00,
2013-02-25 14:45:00,46.0,35.7,30.07,ENE,67,0.0,0.0,67,0.00,,---,0.00,VWS V14.01,2013-02-25 19:45:00,
2013-02-25 14:50:00,46.1,35.8,30.07,NE,51,0.0,0.0,67,0.00,,---,0.00,VWS V14.01,2013-02-25 19:50:00,
2013-02-25 14:55:00,46.1,36.1,30.08,ENE,72,0.0,0.0,68,0.00,,---,0.00,VWS V14.01,2013-02-25 19:55:00,
2013-02-25 15:00:00,46.1,36.1,30.07,ENE,61,0.0,0.0,68,0.00,,---,0.00,VWS V14.01,2013-02-25 20:00:00,
2013-02-25 15:05:00,46.0,35.7,30.07,ENE,61,0.0,0.0,67,0.00,,---,0.00,VWS V14.01,2013-02-25 20:05:00,
2013-02-25 15:10:00,46.1,36.1,30.07,ENE,65,0.0,0.0,68,0.00,,---,0.00,VWS V14.01,2013-02-25 20:10:00,
2013-02-25 15:15:00,46.1,36.1,30.07,NE,38,0.0,0.0,68,0.00,,---,0.00,VWS V14.01,2013-02-25 20:15:00,
2013-02-25 15:20:00,46.1,35.8,30.07,ENE,66,0.0,0.0,67,0.00,,---,0.00,VWS V14.01,2013-02-25 20:20:00,
2013-02-25 15:25:00,46.0,35.7,30.07,NE,42,0.0,0.0,67,0.00,,---,0.00,VWS V14.01,2013-02-25 20:25:00,
2013-02-25 15:30:00,46.0,35.7,30.07,NE,45,0.0,0.0,67,0.00,,---,0.00,VWS V14.01,2013-02-25 20:30:00,
2013-02-25 15:35:00,46.0,35.7,30.07,ENE,63,0.0,0.0,67,0.00,,---,0.00,VWS V14.01,2013-02-25 20:35:00,
2013-02-25 15:40:00,45.9,36.0,30.07,ENE,57,0.0,0.0,68,0.00,,---,0.00,VWS V14.01,2013-02-25 20:40:00,
2013-02-25 15:45:00,45.9,36.0,30.07,ENE,59,0.0,0.0,68,0.00,,---,0.00,VWS V14.01,2013-02-25 20:45:00,
2013-02-25 15:50:00,45.8,35.8,30.06,ENE,69,0.0,0.0,68,0.00,,---,0.00,VWS V14.01,2013-02-25 20:50:00,
2013-02-25 15:55:00,45.8,35.8,30.05,NE,55,0.0,0.0,68,0.00,,---,0.00,VWS V14.01,2013-02-25 20:55:00,
2013-02-25 16:00:00,45.8,35.8,30.05,ENE,57,0.0,0.0,68,0.00,,---,0.00,VWS V14.01,2013-02-25 21:00:00,
2013-02-25 16:05:00,45.7,35.8,30.05,ENE,63,0.0,0.0,68,0.00,,---,0.00,VWS V14.01,2013-02-25 21:05:00,
2013-02-25 16:10:00,45.7,35.8,30.05,NE,56,0.0,0.0,68,0.00,,---,0.00,VWS V14.01,2013-02-25 21:10:00,
2013-02-25 16:15:00,45.7,35.8,30.05,ENE,69,0.0,0.0,68,0.00,,---,0.00,VWS V14.01,2013-02-25 21:15:00,
2013-02-25 16:20:00,45.8,35.8,30.05,ENE,67,0.0,0.0,68,0.00,,---,0.00,VWS V14.01,2013-02-25 21:20:00,
2013-02-25 16:25:00,45.8,35.8,30.05,ENE,67,0.0,0.0,68,0.00,,---,0.00,VWS V14.01,2013-02-25 21:25:00,
2013-02-25 16:30:00,45.8,35.5,30.05,ENE,71,0.0,0.0,67,0.00,,---,0.00,VWS V14.01,2013-02-25 21:30:00,
2013-02-25 16:35:00,45.9,36.0,30.05,East,89,0.0,0.0,68,0.00,,---,0.00,VWS V14.01,2013-02-25 21:35:00,
2013-02-25 16:40:00,45.9,35.6,30.05,ENE,65,0.0,0.0,67,0.00,,---,0.00,VWS V14.01,2013-02-25 21:40:00,
2013-02-25 16:45:00,46.0,36.0,30.05,East,92,0.0,0.0,68,0.00,,---,0.00,VWS V14.01,2013-02-25 21:45:00,
2013-02-25 16:50:00,45.9,36.0,30.04,ESE,106,0.0,0.0,68,0.00,,---,0.00,VWS V14.01,2013-02-25 21:50:00,
2013-02-25 16:55:00,45.9,36.0,30.05,ENE,59,0.0,0.0,68,0.01,,---,0.01,VWS V14.01,2013-02-25 21:55:00,
2013-02-25 17:00:00,45.9,36.3,30.05,East,87,0.0,0.0,69,0.01,,---,0.01,VWS V14.01,2013-02-25 22:00:00,
2013-02-25 17:05:00,45.8,36.6,30.05,East,93,0.0,0.0,70,0.01,,---,0.01,VWS V14.01,2013-02-25 22:05:00,
2013-02-25 17:10:00,45.8,36.6,30.04,East,95,0.0,0.0,70,0.01,,---,0.01,VWS V14.01,2013-02-25 22:10:00,
2013-02-25 17:15:00,46.0,36.8,30.04,East,91,0.0,0.0,70,0.01,,---,0.01,VWS V14.01,2013-02-25 22:15:00,
2013-02-25 17:20:00,46.1,36.9,30.04,East,101,0.0,0.0,70,0.01,,---,0.01,VWS V14.01,2013-02-25 22:20:00,
2013-02-25 17:25:00,46.1,37.2,30.03,East,80,0.0,0.0,71,0.01,,---,0.01,VWS V14.01,2013-02-25 22:25:00,
2013-02-25 17:30:00,46.1,36.9,30.03,East,97,0.0,0.0,70,0.02,,---,0.02,VWS V14.01,2013-02-25 22:30:00,
2013-02-25 17:34:00,46.3,37.1,30.03,ESE,103,0.0,0.0,70,0.02,,---,0.02,VWS V14.01,2013-02-25 22:34:00,
2013-02-25 17:39:00,46.4,37.2,30.02,East,92,0.0,0.0,70,0.02,,---,0.02,VWS V14.01,2013-02-25 22:39:00,
2013-02-25 17:44:00,46.4,37.2,30.02,East,84,0.0,0.0,70,0.02,,---,0.02,VWS V14.01,2013-02-25 22:44:00,
2013-02-25 17:49:00,46.5,37.3,30.02,East,101,0.0,0.0,70,0.02,,---,0.02,VWS V14.01,2013-02-25 22:49:00,
2013-02-25 17:54:00,46.8,37.5,30.02,ESE,109,0.0,0.0,70,0.02,,---,0.02,VWS V14.01,2013-02-25 22:54:00,
2013-02-25 17:59:00,46.9,37.6,30.02,East,100,0.0,0.0,70,0.02,,---,0.02,VWS V14.01,2013-02-25 22:59:00,
2013-02-25 18:00:00,46.9,37.6,30.02,East,92,0.0,0.0,70,0.02,,---,0.02,VWS V14.01,2013-02-25 23:00:00,
2013-02-25 18:04:00,47.0,37.7,30.02,East,97,0.0,0.0,70,0.01,,---,0.02,VWS V14.01,2013-02-25 23:04:00,
2013-02-25 18:09:00,47.0,37.7,30.03,ENE,71,0.0,0.0,70,0.01,,---,0.02,VWS V14.01,2013-02-25 23:09:00,
2013-02-25 18:14:00,47.2,38.3,30.04,ENE,69,0.0,0.0,71,0.01,,---,0.02,VWS V14.01,2013-02-25 23:14:00,
2013-02-25 18:19:00,47.3,38.4,30.04,East,79,0.0,0.0,71,0.01,,---,0.02,VWS V14.01,2013-02-25 23:19:00,
2013-02-25 18:24:00,47.4,38.5,30.04,ENE,76,0.0,0.0,71,0.01,,---,0.02,VWS V14.01,2013-02-25 23:24:00,
2013-02-25 18:29:00,47.5,38.6,30.04,ENE,78,0.0,0.0,71,0.01,,---,0.02,VWS V14.01,2013-02-25 23:29:00,
2013-02-25 18:30:00,47.5,38.6,30.03,East,81,0.0,0.0,71,0.01,,---,0.02,VWS V14.01,2013-02-25 23:30:00,
2013-02-25 18:34:00,47.7,38.8,30.03,East,88,0.0,0.0,71,0.00,,---,0.02,VWS V14.01,2013-02-25 23:34:00,
2013-02-25 18:39:00,47.8,38.9,30.05,East,97,0.0,0.0,71,0.00,,---,0.02,VWS V14.01,2013-02-25 23:39:00,
2013-02-25 18:44:00,47.9,38.6,30.05,East,84,0.0,0.0,70,0.00,,---,0.02,VWS V14.01,2013-02-25 23:44:00,
2013-02-25 18:49:00,47.8,38.5,30.04,ENE,69,0.0,0.0,70,0.00,,---,0.02,VWS V14.01,2013-02-25 23:49:00,
2013-02-25 18:54:00,47.8,38.5,30.04,ENE,78,0.0,0.0,70,0.00,,---,0.02,VWS V14.01,2013-02-25 23:54:00,
2013-02-25 18:59:00,48.0,39.1,30.04,NE,49,0.0,0.0,71,0.00,,---,0.02,VWS V14.01,2013-02-25 23:59:00,
2013-02-25 19:00:00,48.0,39.1,30.04,East,82,0.0,0.0,71,0.00,,---,0.02,VWS V14.01,2013-02-26 00:00:00,
2013-02-25 19:04:00,48.1,39.2,30.03,East,82,0.0,0.0,71,0.00,,---,0.02,VWS V14.01,2013-02-26 00:04:00,
2013-02-25 19:09:00,48.2,40.3,30.03,ENE,71,0.0,0.0,74,0.00,,---,0.02,VWS V14.01,2013-02-26 00:09:00,
2013-02-25 19:14:00,48.2,39.2,30.03,East,86,0.0,0.0,71,0.00,,---,0.02,VWS V14.01,2013-02-26 00:14:00,
2013-02-25 19:19:00,48.1,39.2,30.05,NE,55,0.0,0.0,71,0.00,,---,0.02,VWS V14.01,2013-02-26 00:19:00,
2013-02-25 19:24:00,47.9,39.0,30.07,North,355,0.0,0.0,71,0.00,,---,0.02,VWS V14.01,2013-02-26 00:24:00,
2013-02-25 19:29:00,47.8,38.5,30.06,NE,34,0.0,0.0,70,0.00,,---,0.02,VWS V14.01,2013-02-26 00:29:00,
2013-02-25 19:30:00,47.7,38.4,30.06,NE,47,0.0,0.0,70,0.00,,---,0.02,VWS V14.01,2013-02-26 00:30:00,
2013-02-25 19:34:00,47.5,38.2,30.06,NE,49,0.0,0.0,70,0.00,,---,0.02,VWS V14.01,2013-02-26 00:34:00,
2013-02-25 19:39:00,47.1,37.1,30.07,NE,35,0.0,0.0,68,0.00,,---,0.02,VWS V14.01,2013-02-26 00:39:00,
2013-02-25 19:44:00,46.1,35.4,30.07,North,9,0.0,0.0,66,0.00,,---,0.02,VWS V14.01,2013-02-26 00:44:00,
2013-02-25 19:49:00,45.5,34.4,30.08,NNW,332,0.0,0.0,65,0.00,,---,0.02,VWS V14.01,2013-02-26 00:49:00,
2013-02-25 19:54:00,45.2,34.2,30.07,North,355,0.0,0.0,65,0.00,,---,0.02,VWS V14.01,2013-02-26 00:54:00,
2013-02-25 19:59:00,45.0,34.0,30.07,NE,37,0.0,0.0,65,0.00,,---,0.02,VWS V14.01,2013-02-26 00:59:00,
2013-02-25 20:00:00,45.0,33.6,30.07,NE,35,0.0,0.0,64,0.00,,---,0.02,VWS V14.01,2013-02-26 01:00:00,
2013-02-25 20:04:00,45.0,33.6,30.06,NE,44,0.0,0.0,64,0.00,,---,0.02,VWS V14.01,2013-02-26 01:04:00,
2013-02-25 20:09:00,45.1,34.0,30.05,NNE,32,0.0,0.0,65,0.00,,---,0.02,VWS V14.01,2013-02-26 01:09:00,
2013-02-25 20:14:00,45.3,34.2,30.04,NE,45,0.0,0.0,65,0.00,,---,0.02,VWS V14.01,2013-02-26 01:14:00,
2013-02-25 20:19:00,45.4,34.3,30.04,ENE,59,0.0,0.0,65,0.00,,---,0.02,VWS V14.01,2013-02-26 01:19:00,
2013-02-25 20:24:00,45.5,34.4,30.04,ENE,58,0.0,0.0,65,0.00,,---,0.02,VWS V14.01,2013-02-26 01:24:00,
2013-02-25 20:29:00,45.7,35.0,30.04,ENE,73,0.0,0.0,66,0.00,,---,0.02,VWS V14.01,2013-02-26 01:29:00,
2013-02-25 20:30:00,45.7,35.0,30.04,ENE,60,0.0,0.0,66,0.00,,---,0.02,VWS V14.01,2013-02-26 01:30:00,
2013-02-25 20:34:00,45.8,35.1,30.04,ENE,64,0.0,0.0,66,0.00,,---,0.02,VWS V14.01,2013-02-26 01:34:00,
2013-02-25 20:39:00,45.9,35.2,30.04,NE,52,0.0,0.0,66,0.00,,---,0.02,VWS V14.01,2013-02-26 01:39:00,
2013-02-25 20:44:00,45.8,34.7,30.04,ENE,64,0.0,0.0,65,0.00,,---,0.02,VWS V14.01,2013-02-26 01:44:00,
2013-02-25 20:49:00,45.8,35.1,30.04,ENE,58,0.0,0.0,66,0.00,,---,0.02,VWS V14.01,2013-02-26 01:49:00,
2013-02-25 20:54:00,45.8,35.1,30.03,ENE,57,0.0,0.0,66,0.00,,---,0.02,VWS V14.01,2013-02-26 01:54:00,
2013-02-25 20:59:00,45.8,35.1,30.03,ENE,61,0.0,0.0,66,0.00,,---,0.02,VWS V14.01,2013-02-26 01:59:00,
2013-02-25 21:00:00,45.7,35.0,30.03,NNE,30,0.0,0.0,66,0.00,,---,0.02,VWS V14.01,2013-02-26 02:00:00,
2013-02-25 21:04:00,45.8,35.1,30.02,NE,46,0.0,0.0,66,0.00,,---,0.02,VWS V14.01,2013-02-26 02:04:00,
2013-02-25 21:09:00,45.8,35.1,30.02,ENE,67,0.0,0.0,66,0.00,,---,0.02,VWS V14.01,2013-02-26 02:09:00,
2013-02-25 21:14:00,46.0,35.3,30.03,NE,40,0.0,0.0,66,0.00,,---,0.02,VWS V14.01,2013-02-26 02:14:00,
2013-02-25 21:19:00,46.2,35.9,30.03,ENE,69,0.0,0.0,67,0.00,,---,0.02,VWS V14.01,2013-02-26 02:19:00,
2013-02-25 21:24:00,46.4,36.4,30.03,ENE,58,0.0,0.0,68,0.00,,---,0.02,VWS V14.01,2013-02-26 02:24:00,
2013-02-25 21:29:00,46.4,36.4,30.03,NE,46,0.0,0.0,68,0.00,,---,0.02,VWS V14.01,2013-02-26 02:29:00,
2013-02-25 21:30:00,46.4,36.0,30.03,ENE,67,0.0,0.0,67,0.00,,---,0.02,VWS V14.01,2013-02-26 02:30:00,
2013-02-25 21:34:00,46.5,36.5,30.02,NE,49,0.0,0.0,68,0.00,,---,0.02,VWS V14.01,2013-02-26 02:34:00,
2013-02-25 21:39:00,46.7,37.1,30.02,ENE,63,0.0,0.0,69,0.00,,---,0.02,VWS V14.01,2013-02-26 02:39:00,
2013-02-25 21:44:00,46.9,37.3,30.03,NE,42,0.0,0.0,69,0.00,,---,0.02,VWS V14.01,2013-02-26 02:44:00,
2013-02-25 21:49:00,46.9,37.3,30.03,ENE,72,0.0,0.0,69,0.00,,---,0.02,VWS V14.01,2013-02-26 02:49:00,
2013-02-25 21:54:00,47.0,37.4,30.01,ENE,67,0.0,0.0,69,0.00,,---,0.02,VWS V14.01,2013-02-26 02:54:00,
2013-02-25 21:59:00,47.4,38.1,30.02,ENE,66,0.0,0.0,70,0.00,,---,0.02,VWS V14.01,2013-02-26 02:59:00,
2013-02-25 22:00:00,47.3,38.0,30.01,NE,46,0.0,0.0,70,0.00,,---,0.02,VWS V14.01,2013-02-26 03:00:00,
2013-02-25 22:04:00,47.3,38.0,30.01,NE,54,0.0,0.0,70,0.00,,---,0.02,VWS V14.01,2013-02-26 03:04:00,
2013-02-25 22:09:00,47.3,38.0,30.01,East,86,0.0,0.0,70,0.00,,---,0.02,VWS V14.01,2013-02-26 03:09:00,
2013-02-25 22:14:00,47.6,38.7,30.01,ENE,77,0.0,0.0,71,0.00,,---,0.02,VWS V14.01,2013-02-26 03:14:00,
2013-02-25 22:19:00,47.7,38.8,30.01,ENE,61,0.0,0.0,71,0.00,,---,0.02,VWS V14.01,2013-02-26 03:19:00,
2013-02-25 22:24:00,47.8,38.9,30.01,ENE,67,0.0,0.0,71,0.00,,---,0.02,VWS V14.01,2013-02-26 03:24:00,
2013-02-25 22:29:00,47.9,39.3,30.01,East,89,0.0,0.0,72,0.00,,---,0.02,VWS V14.01,2013-02-26 03:29:00,
2013-02-25 22:30:00,47.8,39.2,30.01,ENE,72,0.0,0.0,72,0.00,,---,0.02,VWS V14.01,2013-02-26 03:30:00,
2013-02-25 22:34:00,47.6,39.0,30.01,East,79,0.0,0.0,72,0.00,,---,0.02,VWS V14.01,2013-02-26 03:34:00,
2013-02-25 22:39:00,47.5,39.6,30.01,ENE,67,0.0,0.0,74,0.00,,---,0.02,VWS V14.01,2013-02-26 03:39:00,
2013-02-25 22:44:00,47.3,39.8,30.02,NE,51,0.0,0.0,75,0.00,,---,0.02,VWS V14.01,2013-02-26 03:44:00,
2013-02-25 22:49:00,47.4,40.2,30.02,ENE,65,0.0,0.0,76,0.00,,---,0.02,VWS V14.01,2013-02-26 03:49:00,
2013-02-25 22:54:00,47.3,40.1,30.02,East,85,0.0,0.0,76,0.00,,---,0.02,VWS V14.01,2013-02-26 03:54:00,
2013-02-25 22:59:00,47.3,40.1,30.01,East,82,0.0,0.0,76,0.00,,---,0.02,VWS V14.01,2013-02-26 03:59:00,
2013-02-25 23:00:00,47.3,40.5,30.01,ENE,63,0.0,0.0,77,0.00,,---,0.02,VWS V14.01,2013-02-26 04:00:00,
2013-02-25 23:04:00,47.3,40.5,30.02,ENE,61,0.0,0.0,77,0.00,,---,0.02,VWS V14.01,2013-02-26 04:04:00,
2013-02-25 23:09:00,47.3,40.5,30.02,ENE,60,0.0,0.0,77,0.00,,---,0.02,VWS V14.01,2013-02-26 04:09:00,
2013-02-25 23:14:00,47.3,40.8,30.02,ENE,67,0.0,0.0,78,0.00,,---,0.02,VWS V14.01,2013-02-26 04:14:00,
2013-02-25 23:19:00,47.2,41.0,30.01,East,94,0.0,0.0,79,0.00,,---,0.02,VWS V14.01,2013-02-26 04:19:00,
2013-02-25 23:24:00,47.1,40.9,30.01,East,90,0.0,0.0,79,0.00,,---,0.03,VWS V14.01,2013-02-26 04:24:00,
2013-02-25 23:29:00,47.0,41.2,30.01,ENE,67,0.0,0.0,80,0.01,,---,0.03,VWS V14.01,2013-02-26 04:29:00,
2013-02-25 23:30:00,47.0,41.2,30.01,East,80,0.0,0.0,80,0.01,,---,0.03,VWS V14.01,2013-02-26 04:30:00,
2013-02-25 23:34:00,47.0,41.5,30.00,ENE,74,0.0,0.0,81,0.01,,---,0.03,VWS V14.01,2013-02-26 04:34:00,
2013-02-25 23:39:00,46.9,41.4,30.00,NE,48,0.0,0.0,81,0.01,,---,0.03,VWS V14.01,2013-02-26 04:39:00,
2013-02-25 23:44:00,47.0,41.8,30.00,ENE,65,0.0,0.0,82,0.01,,---,0.03,VWS V14.01,2013-02-26 04:44:00,
2013-02-25 23:49:00,47.0,41.8,30.00,ENE,65,0.0,0.0,82,0.01,,---,0.03,VWS V14.01,2013-02-26 04:49:00,
2013-02-25 23:54:00,46.8,41.6,30.00,ENE,69,0.0,0.0,82,0.01,,---,0.03,VWS V14.01,2013-02-26 04:54:00,
2013-02-25 23:59:00,46.6,41.4,30.00,ENE,77,0.0,0.0,82,0.01,,---,0.03,VWS V14.01,2013-02-26 04:59:00,